Torna al catalogo

ION SCV-011

AttivoScienzaPO
NORAD 56957·PAYLOAD·🇮🇹 Italy

Lanciato Jun 12, 2023 da Vandenberg Space Force Base

Loading…

Prossimi Passaggi (prossime 24 ore)

TLE

AggiornatoSource: Space-Track

Epoca: Sep 13, 2026, 23:47 UTC

1 56957U 23084AB  26256.99097399  .00004217  00000-0  15009-3 0  9997
2 56957  98.1357  92.5572 0008483  88.8090 271.4120 15.29582284179384

Traccia ION SCV-011 in tempo reale con AllMySat

Download on the App Store